Time,TemperatureF,DewpointF,PressureIn,WindDirection,WindDirectionDegrees,WindSpeedMPH,WindSpeedGustMPH,Humidity,HourlyPrecipIn,Conditions,Clouds,dailyrainin,SoftwareType,DateUTC
2013-02-19 00:00:00,39.1,24.7,30.38,SSW,213,1.0,3.0,56,0.00,,FEW200,0.10,VWS V14.01,2013-02-19 05:00:00,
2013-02-19 00:03:00,39.1,24.7,30.38,SW,217,0.0,4.0,56,0.00,,SCT180,0.10,VWS V14.01,2013-02-19 05:03:00,
2013-02-19 00:06:00,39.1,24.7,30.37,SSW,203,0.0,3.0,56,0.00,,SCT180,0.00,VWS V14.01,2013-02-19 05:06:00,
2013-02-19 00:07:00,39.1,25.2,30.37,SSW,203,2.0,5.0,57,0.00,,SCT180,0.00,VWS V14.01,2013-02-19 05:07:00,
2013-02-19 00:13:00,38.9,25.0,30.37,WSW,237,1.0,5.0,57,0.00,,SCT180,0.00,VWS V14.01,2013-02-19 05:13:00,
2013-02-19 00:19:00,38.9,25.4,30.36,WSW,238,0.0,0.0,58,0.00,,SCT180,0.00,VWS V14.01,2013-02-19 05:19:00,
2013-02-19 00:24:00,38.8,25.3,30.36,SSW,212,1.0,5.0,58,0.00,,SCT180,0.00,VWS V14.01,2013-02-19 05:24:00,
2013-02-19 00:30:00,38.6,25.1,30.36,South,182,2.0,5.0,58,0.00,,SCT180,0.00,VWS V14.01,2013-02-19 05:30:00,
2013-02-19 00:36:00,38.5,25.4,30.35,SW,222,0.0,2.0,59,0.00,,SCT180,0.00,VWS V14.01,2013-02-19 05:36:00,
2013-02-19 00:42:00,38.2,25.5,30.35,SW,222,0.0,2.0,60,0.00,,SCT180,0.00,VWS V14.01,2013-02-19 05:42:00,
2013-02-19 00:48:00,37.9,25.3,30.35,SW,221,0.0,1.0,60,0.00,,SCT180,0.00,VWS V14.01,2013-02-19 05:48:00,
2013-02-19 00:54:00,37.6,25.0,30.34,NW,306,0.0,2.0,60,0.00,,SCT180,0.00,VWS V14.01,2013-02-19 05:54:00,
2013-02-19 01:00:00,37.5,24.9,30.34,WNW,297,0.0,0.0,60,0.00,,SCT180,0.00,VWS V14.01,2013-02-19 06:00:00,
2013-02-19 01:06:00,37.3,25.1,30.34,WNW,284,0.0,2.0,61,0.00,,FEW180,0.00,VWS V14.01,2013-02-19 06:06:00,
2013-02-19 01:12:00,37.0,25.2,30.34,SSW,194,0.0,2.0,62,0.00,,FEW180,0.00,VWS V14.01,2013-02-19 06:12:00,
2013-02-19 01:18:00,36.9,25.1,30.34,SW,220,0.0,3.0,62,0.00,,FEW180,0.00,VWS V14.01,2013-02-19 06:18:00,
2013-02-19 01:24:00,36.6,25.2,30.34,SSW,210,0.0,3.0,63,0.00,,FEW180,0.00,VWS V14.01,2013-02-19 06:24:00,
2013-02-19 01:30:00,36.6,25.2,30.34,SW,236,0.0,5.0,63,0.00,,FEW180,0.00,VWS V14.01,2013-02-19 06:30:00,
2013-02-19 01:36:00,36.5,25.1,30.34,SSW,206,0.0,1.0,63,0.00,,FEW180,0.00,VWS V14.01,2013-02-19 06:36:00,
2013-02-19 01:42:00,36.3,25.3,30.34,SSW,205,2.0,3.0,64,0.00,,FEW180,0.00,VWS V14.01,2013-02-19 06:42:00,
2013-02-19 01:48:00,36.3,25.3,30.34,WSW,242,0.0,4.0,64,0.00,,FEW180,0.00,VWS V14.01,2013-02-19 06:48:00,
2013-02-19 01:54:00,36.3,25.3,30.34,SW,235,0.0,4.0,64,0.00,,FEW180,0.00,VWS V14.01,2013-02-19 06:54:00,
2013-02-19 02:00:00,36.0,25.4,30.34,South,181,0.0,1.0,65,0.00,,FEW180,0.00,VWS V14.01,2013-02-19 07:00:00,
2013-02-19 02:06:00,35.9,25.3,30.33,SSW,207,0.0,0.0,65,0.00,,FEW180,0.00,VWS V14.01,2013-02-19 07:06:00,
2013-02-19 02:13:00,35.5,25.3,30.33,WNW,286,0.0,0.0,66,0.00,,FEW180,0.00,VWS V14.01,2013-02-19 07:13:00,
2013-02-19 02:19:00,35.3,25.5,30.33,WNW,286,0.0,0.0,67,0.00,,FEW180,0.00,VWS V14.01,2013-02-19 07:19:00,
2013-02-19 02:24:00,35.0,25.2,30.33,WNW,286,0.0,0.0,67,0.00,,FEW180,0.00,VWS V14.01,2013-02-19 07:24:00,
2013-02-19 02:31:00,34.7,25.2,30.33,WNW,286,0.0,0.0,68,0.00,,FEW180,0.00,VWS V14.01,2013-02-19 07:31:00,
2013-02-19 02:37:00,34.4,25.3,30.32,WNW,285,0.0,0.0,69,0.00,,FEW180,0.00,VWS V14.01,2013-02-19 07:37:00,
2013-02-19 02:43:00,34.1,25.0,30.32,WNW,286,0.0,0.0,69,0.00,,FEW180,0.00,VWS V14.01,2013-02-19 07:43:00,
2013-02-19 02:49:00,34.1,25.4,30.31,WNW,285,0.0,0.0,70,0.00,,FEW180,0.00,VWS V14.01,2013-02-19 07:49:00,
2013-02-19 02:54:00,34.1,25.4,30.31,WNW,285,0.0,0.0,70,0.00,,FEW180,0.00,VWS V14.01,2013-02-19 07:54:00,
2013-02-19 02:59:00,34.0,25.6,30.31,WNW,286,0.0,0.0,71,0.00,,FEW180,0.00,VWS V14.01,2013-02-19 07:59:00,
2013-02-19 03:05:00,34.1,25.7,30.30,WNW,285,0.0,0.0,71,0.00,,BKN043,0.00,VWS V14.01,2013-02-19 08:05:00,
2013-02-19 03:11:00,34.3,26.2,30.30,WNW,286,0.0,0.0,72,0.00,,BKN043,0.00,VWS V14.01,2013-02-19 08:11:00,
2013-02-19 03:18:00,34.4,26.0,30.30,WNW,286,0.0,0.0,71,0.00,,BKN043,0.00,VWS V14.01,2013-02-19 08:18:00,
2013-02-19 03:24:00,34.4,26.0,30.29,WNW,286,0.0,0.0,71,0.00,,BKN043,0.00,VWS V14.01,2013-02-19 08:24:00,
2013-02-19 03:30:00,34.4,26.0,30.29,WNW,285,0.0,0.0,71,0.00,,BKN043,0.00,VWS V14.01,2013-02-19 08:30:00,
2013-02-19 03:36:00,34.3,25.9,30.28,WNW,286,0.0,0.0,71,0.00,,BKN043,0.00,VWS V14.01,2013-02-19 08:36:00,
2013-02-19 03:42:00,34.1,25.7,30.28,WNW,285,0.0,0.0,71,0.00,,BKN043,0.00,VWS V14.01,2013-02-19 08:42:00,
2013-02-19 03:48:00,34.0,25.9,30.28,WNW,285,0.0,0.0,72,0.00,,BKN043,0.00,VWS V14.01,2013-02-19 08:48:00,
2013-02-19 03:54:00,33.8,25.7,30.28,WNW,285,0.0,0.0,72,0.00,,BKN043,0.00,VWS V14.01,2013-02-19 08:54:00,
2013-02-19 04:00:00,33.8,26.1,30.28,WNW,285,0.0,0.0,73,0.00,,BKN043,0.00,VWS V14.01,2013-02-19 09:00:00,
2013-02-19 04:06:00,34.1,26.4,30.26,WNW,285,0.0,0.0,73,0.00,,SCT120,0.00,VWS V14.01,2013-02-19 09:06:00,
2013-02-19 04:12:00,34.3,26.2,30.26,WNW,285,0.0,0.0,72,0.00,,SCT120,0.00,VWS V14.01,2013-02-19 09:12:00,
2013-02-19 04:18:00,34.4,26.3,30.26,WNW,285,0.0,0.0,72,0.00,,SCT120,0.00,VWS V14.01,2013-02-19 09:18:00,
2013-02-19 04:24:00,34.3,26.2,30.26,WNW,285,0.0,0.0,72,0.00,,SCT120,0.00,VWS V14.01,2013-02-19 09:24:00,
2013-02-19 04:30:00,34.1,26.4,30.26,WNW,285,0.0,0.0,73,0.00,,SCT120,0.00,VWS V14.01,2013-02-19 09:30:00,
2013-02-19 04:36:00,34.1,26.4,30.25,WNW,285,0.0,0.0,73,0.00,,SCT120,0.00,VWS V14.01,2013-02-19 09:36:00,
2013-02-19 04:42:00,33.8,26.1,30.25,WNW,285,0.0,0.0,73,0.00,,SCT120,0.00,VWS V14.01,2013-02-19 09:42:00,
2013-02-19 04:48:00,33.7,26.3,30.25,WNW,285,0.0,0.0,74,0.00,,SCT120,0.00,VWS V14.01,2013-02-19 09:48:00,
2013-02-19 04:54:00,33.5,26.4,30.26,NW,305,0.0,1.0,75,0.00,,SCT120,0.00,VWS V14.01,2013-02-19 09:54:00,
2013-02-19 05:00:00,33.4,26.3,30.26,NW,305,0.0,0.0,75,0.00,,SCT120,0.00,VWS V14.01,2013-02-19 10:00:00,
2013-02-19 05:06:00,33.2,26.1,30.25,NW,305,0.0,0.0,75,0.00,,FEW032,0.00,VWS V14.01,2013-02-19 10:06:00,
2013-02-19 05:12:00,33.2,26.5,30.25,NW,305,0.0,0.0,76,0.00,,FEW032,0.00,VWS V14.01,2013-02-19 10:12:00,
2013-02-19 05:18:00,33.1,26.4,30.25,NW,305,0.0,0.0,76,0.00,,FEW032,0.00,VWS V14.01,2013-02-19 10:18:00,
2013-02-19 05:24:00,33.1,26.7,30.25,NW,305,0.0,0.0,77,0.00,,FEW032,0.00,VWS V14.01,2013-02-19 10:24:00,
2013-02-19 05:30:00,32.9,26.8,30.25,NW,305,0.0,0.0,78,0.00,,FEW032,0.00,VWS V14.01,2013-02-19 10:30:00,
2013-02-19 05:36:00,32.9,26.5,30.25,NW,305,0.0,0.0,77,0.00,,FEW032,0.00,VWS V14.01,2013-02-19 10:36:00,
2013-02-19 05:42:00,32.9,26.8,30.25,NW,305,0.0,0.0,78,0.00,,FEW032,0.00,VWS V14.01,2013-02-19 10:42:00,
2013-02-19 05:48:00,32.8,26.7,30.24,NW,305,0.0,0.0,78,0.00,,FEW032,0.00,VWS V14.01,2013-02-19 10:48:00,
2013-02-19 05:54:00,32.7,26.9,30.24,NW,305,0.0,0.0,79,0.00,,FEW032,0.00,VWS V14.01,2013-02-19 10:54:00,
2013-02-19 06:01:00,32.5,26.7,30.24,NW,305,0.0,0.0,79,0.00,,FEW032,0.00,VWS V14.01,2013-02-19 11:01:00,
2013-02-19 06:07:00,32.5,26.7,30.24,NW,305,0.0,0.0,79,0.00,,SCT120,0.00,VWS V14.01,2013-02-19 11:07:00,
2013-02-19 06:13:00,32.5,27.0,30.24,NW,305,0.0,0.0,80,0.00,,SCT120,0.00,VWS V14.01,2013-02-19 11:13:00,
2013-02-19 06:19:00,32.5,27.0,30.24,NW,305,0.0,0.0,80,0.00,,SCT120,0.00,VWS V14.01,2013-02-19 11:19:00,
2013-02-19 06:24:00,32.5,27.0,30.24,NW,305,0.0,0.0,80,0.00,,SCT120,0.00,VWS V14.01,2013-02-19 11:24:00,
2013-02-19 06:29:00,32.4,26.9,30.24,NW,305,0.0,0.0,80,0.00,,SCT120,0.00,VWS V14.01,2013-02-19 11:29:00,
2013-02-19 06:35:00,32.4,27.2,30.23,NW,305,0.0,0.0,81,0.00,,SCT120,0.00,VWS V14.01,2013-02-19 11:35:00,
2013-02-19 06:41:00,32.2,27.0,30.23,NW,305,0.0,0.0,81,0.00,,SCT120,0.00,VWS V14.01,2013-02-19 11:41:00,
2013-02-19 06:48:00,32.1,26.9,30.23,NW,305,0.0,0.0,81,0.00,,SCT120,0.00,VWS V14.01,2013-02-19 11:48:00,
2013-02-19 06:54:00,32.2,27.3,30.23,NW,305,0.0,0.0,82,0.00,,SCT120,0.00,VWS V14.01,2013-02-19 11:54:00,
2013-02-19 07:00:00,32.5,27.6,30.23,NW,305,0.0,0.0,82,0.00,,SCT120,0.00,VWS V14.01,2013-02-19 12:00:00,
2013-02-19 07:06:00,32.7,28.1,30.22,NW,305,0.0,0.0,83,0.00,,BKN120,0.00,VWS V14.01,2013-02-19 12:06:00,
2013-02-19 07:12:00,33.1,28.5,30.22,WSW,253,0.0,1.0,83,0.00,,BKN120,0.00,VWS V14.01,2013-02-19 12:12:00,
2013-02-19 07:18:00,33.8,28.9,30.22,West,274,0.0,1.0,82,0.00,,BKN120,0.00,VWS V14.01,2013-02-19 12:18:00,
2013-02-19 07:24:00,34.3,29.1,30.22,South,182,0.0,1.0,81,0.00,,BKN120,0.00,VWS V14.01,2013-02-19 12:24:00,
2013-02-19 07:30:00,34.9,29.4,30.22,South,182,0.0,0.0,80,0.00,,BKN120,0.00,VWS V14.01,2013-02-19 12:30:00,
2013-02-19 07:36:00,35.2,29.7,30.22,South,182,0.0,0.0,80,0.00,,BKN120,0.00,VWS V14.01,2013-02-19 12:36:00,
2013-02-19 07:42:00,35.8,30.2,30.22,South,181,0.0,2.0,80,0.00,,BKN120,0.00,VWS V14.01,2013-02-19 12:42:00,
2013-02-19 07:48:00,36.3,30.4,30.22,NW,307,0.0,1.0,79,0.00,,BKN120,0.00,VWS V14.01,2013-02-19 12:48:00,
2013-02-19 07:54:00,37.0,30.5,30.21,ESE,122,0.0,2.0,77,0.00,,BKN120,0.00,VWS V14.01,2013-02-19 12:54:00,
2013-02-19 08:00:00,37.6,31.1,30.21,NW,304,0.0,1.0,77,0.00,,BKN120,0.00,VWS V14.01,2013-02-19 13:00:00,
2013-02-19 08:06:00,38.3,31.4,30.22,SSW,203,1.0,6.0,76,0.00,,BKN200,0.00,VWS V14.01,2013-02-19 13:06:00,
2013-02-19 08:12:00,39.1,31.9,30.22,SSW,205,0.0,6.0,75,0.00,,BKN200,0.00,VWS V14.01,2013-02-19 13:12:00,
2013-02-19 08:18:00,39.6,32.0,30.22,South,184,0.0,1.0,74,0.00,,BKN200,0.00,VWS V14.01,2013-02-19 13:18:00,
2013-02-19 08:24:00,40.1,32.5,30.21,SW,216,0.0,3.0,74,0.00,,BKN200,0.00,VWS V14.01,2013-02-19 13:24:00,
2013-02-19 08:30:00,40.3,32.7,30.21,WSW,243,2.0,4.0,74,0.00,,BKN200,0.00,VWS V14.01,2013-02-19 13:30:00,
2013-02-19 08:36:00,40.6,32.6,30.21,WSW,257,0.0,1.0,73,0.00,,BKN200,0.00,VWS V14.01,2013-02-19 13:36:00,
2013-02-19 08:42:00,40.9,33.3,30.21,SW,236,2.0,4.0,74,0.00,,BKN200,0.00,VWS V14.01,2013-02-19 13:42:00,
2013-02-19 08:48:00,41.2,33.5,30.21,SSE,148,0.0,3.0,74,0.00,,BKN200,0.00,VWS V14.01,2013-02-19 13:48:00,
2013-02-19 08:54:00,41.5,33.8,30.20,SSE,148,0.0,3.0,74,0.00,,BKN200,0.00,VWS V14.01,2013-02-19 13:54:00,
2013-02-19 09:00:00,41.8,34.1,30.20,WSW,238,0.0,3.0,74,0.00,,BKN200,0.00,VWS V14.01,2013-02-19 14:00:00,
2013-02-19 09:06:00,42.2,34.9,30.19,SSE,162,0.0,4.0,75,0.00,,OVC200,0.00,VWS V14.01,2013-02-19 14:06:00,
2013-02-19 09:12:00,42.6,35.2,30.19,SE,136,0.0,4.0,75,0.00,,OVC200,0.00,VWS V14.01,2013-02-19 14:12:00,
2013-02-19 09:18:00,42.9,35.5,30.19,SW,224,0.0,4.0,75,0.00,,OVC200,0.00,VWS V14.01,2013-02-19 14:18:00,
2013-02-19 09:24:00,43.3,35.9,30.18,ESE,105,0.0,4.0,75,0.00,,OVC200,0.00,VWS V14.01,2013-02-19 14:24:00,
2013-02-19 09:30:00,43.5,36.1,30.18,SW,216,0.0,4.0,75,0.00,,OVC200,0.00,VWS V14.01,2013-02-19 14:30:00,
2013-02-19 09:36:00,43.5,35.8,30.18,SW,232,0.0,1.0,74,0.00,,OVC200,0.00,VWS V14.01,2013-02-19 14:36:00,
2013-02-19 09:42:00,43.6,36.2,30.18,SW,232,0.0,2.0,75,0.00,,OVC200,0.00,VWS V14.01,2013-02-19 14:42:00,
2013-02-19 09:48:00,43.8,36.4,30.18,South,169,0.0,5.0,75,0.00,,OVC200,0.00,VWS V14.01,2013-02-19 14:48:00,
2013-02-19 09:54:00,43.8,36.4,30.18,SW,232,0.0,5.0,75,0.00,,OVC200,0.00,VWS V14.01,2013-02-19 14:54:00,
2013-02-19 10:01:00,43.8,37.1,30.18,North,358,0.0,4.0,77,0.00,,OVC200,0.00,VWS V14.01,2013-02-19 15:01:00,
2013-02-19 10:07:00,43.6,37.5,30.17,West,273,0.0,3.0,79,0.00,,-RA,0.00,VWS V14.01,2013-02-19 15:07:00,
2013-02-19 10:13:00,43.6,37.5,30.17,SSW,212,0.0,4.0,79,0.00,,-RA,0.00,VWS V14.01,2013-02-19 15:13:00,
2013-02-19 10:19:00,43.8,38.0,30.17,SW,218,1.0,4.0,80,0.00,,-RA,0.00,VWS V14.01,2013-02-19 15:19:00,
2013-02-19 10:24:00,44.2,38.4,30.17,WSW,255,2.0,4.0,80,0.00,,-RA,0.00,VWS V14.01,2013-02-19 15:24:00,
2013-02-19 10:31:00,44.5,39.4,30.17,SSW,198,0.0,4.0,82,0.01,,-RA,0.01,VWS V14.01,2013-02-19 15:31:00,
2013-02-19 10:37:00,44.6,39.8,30.17,WSW,248,0.0,2.0,83,0.01,,-RA,0.01,VWS V14.01,2013-02-19 15:37:00,
2013-02-19 10:43:00,45.1,40.6,30.17,WSW,244,0.0,2.0,84,0.01,,-RA,0.01,VWS V14.01,2013-02-19 15:43:00,
2013-02-19 10:49:00,45.2,40.7,30.16,WSW,244,0.0,4.0,84,0.01,,-RA,0.01,VWS V14.01,2013-02-19 15:49:00,
2013-02-19 10:54:00,45.4,41.2,30.16,WSW,240,1.0,4.0,85,0.01,,-RA,0.01,VWS V14.01,2013-02-19 15:54:00,
2013-02-19 11:01:00,45.5,41.3,30.16,SW,231,0.0,2.0,85,0.01,,-RA,0.01,VWS V14.01,2013-02-19 16:01:00,
2013-02-19 11:07:00,45.7,41.8,30.15,SW,230,0.0,0.0,86,0.01,,-RA,0.01,VWS V14.01,2013-02-19 16:07:00,
2013-02-19 11:13:00,45.7,41.8,30.15,WSW,257,0.0,3.0,86,0.01,,-RA,0.01,VWS V14.01,2013-02-19 16:13:00,
2013-02-19 11:19:00,46.0,42.7,30.14,WSW,257,0.0,1.0,88,0.02,,-RA,0.02,VWS V14.01,2013-02-19 16:19:00,
2013-02-19 11:24:00,46.4,43.3,30.14,West,274,3.0,3.0,89,0.02,,-RA,0.02,VWS V14.01,2013-02-19 16:24:00,
2013-02-19 11:29:00,47.0,43.6,30.14,West,271,0.0,5.0,88,0.02,,-RA,0.02,VWS V14.01,2013-02-19 16:29:00,
2013-02-19 11:35:00,47.4,44.0,30.14,West,262,5.0,10.0,88,0.01,,-RA,0.02,VWS V14.01,2013-02-19 16:35:00,
2013-02-19 11:41:00,48.0,44.6,30.14,WSW,253,1.0,11.0,88,0.01,,-RA,0.02,VWS V14.01,2013-02-19 16:41:00,
2013-02-19 11:48:00,48.5,44.8,30.14,SSW,193,15.0,15.0,87,0.01,,-RA,0.02,VWS V14.01,2013-02-19 16:48:00,
2013-02-19 11:54:00,48.8,45.1,30.12,SW,236,12.0,18.0,87,0.01,,-RA,0.02,VWS V14.01,2013-02-19 16:54:00,
2013-02-19 12:00:00,48.8,45.1,30.12,WNW,290,5.0,12.0,87,0.01,,-RA,0.02,VWS V14.01,2013-02-19 17:00:00,
2013-02-19 12:06:00,48.8,45.1,30.11,ESE,120,4.0,9.0,87,0.02,,-RA,0.03,VWS V14.01,2013-02-19 17:06:00,
2013-02-19 12:12:00,48.9,45.2,30.11,SW,221,0.0,11.0,87,0.02,,-RA,0.03,VWS V14.01,2013-02-19 17:12:00,
2013-02-19 12:18:00,48.9,45.2,30.11,WSW,257,1.0,9.0,87,0.02,,-RA,0.03,VWS V14.01,2013-02-19 17:18:00,
2013-02-19 12:24:00,49.1,45.4,30.09,SSW,210,2.0,9.0,87,0.02,,-RA,0.03,VWS V14.01,2013-02-19 17:24:00,
2013-02-19 12:30:00,49.2,45.5,30.09,SW,229,2.0,9.0,87,0.01,,-RA,0.03,VWS V14.01,2013-02-19 17:30:00,
2013-02-19 12:36:00,49.4,45.7,30.09,WSW,252,5.0,5.0,87,0.01,,-RA,0.03,VWS V14.01,2013-02-19 17:36:00,
2013-02-19 12:42:00,49.6,45.3,30.09,WSW,238,8.0,12.0,85,0.01,,-RA,0.03,VWS V14.01,2013-02-19 17:42:00,
2013-02-19 12:48:00,49.8,45.5,30.09,West,266,1.0,9.0,85,0.01,,-RA,0.03,VWS V14.01,2013-02-19 17:48:00,
2013-02-19 12:54:00,49.9,45.6,30.07,West,259,3.0,9.0,85,0.01,,-RA,0.03,VWS V14.01,2013-02-19 17:54:00,
2013-02-19 13:00:00,50.2,45.6,30.07,WSW,248,2.0,11.0,84,0.01,,-RA,0.03,VWS V14.01,2013-02-19 18:00:00,
2013-02-19 13:06:00,50.5,45.8,30.06,SSW,212,4.0,10.0,84,0.00,,-RA,0.03,VWS V14.01,2013-02-19 18:06:00,
2013-02-19 13:12:00,50.8,46.5,30.06,SW,227,8.0,11.0,85,0.00,,-RA,0.03,VWS V14.01,2013-02-19 18:12:00,
2013-02-19 13:18:00,51.0,46.7,30.06,SSW,193,1.0,10.0,85,0.00,,-RA,0.03,VWS V14.01,2013-02-19 18:18:00,
2013-02-19 13:24:00,51.1,46.8,30.04,SW,221,2.0,10.0,85,0.00,,-RA,0.03,VWS V14.01,2013-02-19 18:24:00,
2013-02-19 13:30:00,51.1,46.8,30.04,NW,304,1.0,9.0,85,0.00,,-RA,0.03,VWS V14.01,2013-02-19 18:30:00,
2013-02-19 13:36:00,51.3,47.0,30.02,North,0,1.0,5.0,85,0.00,,-RA,0.03,VWS V14.01,2013-02-19 18:36:00,
2013-02-19 13:42:00,51.4,47.0,30.02,SW,236,3.0,10.0,85,0.00,,-RA,0.03,VWS V14.01,2013-02-19 18:42:00,
2013-02-19 13:48:00,51.4,47.0,30.02,WNW,296,2.0,16.0,85,0.00,,-RA,0.03,VWS V14.01,2013-02-19 18:48:00,
2013-02-19 13:54:00,51.6,47.6,30.01,SW,232,2.0,16.0,86,0.00,,-RA,0.03,VWS V14.01,2013-02-19 18:54:00,
2013-02-19 14:00:00,51.6,47.6,30.01,SSW,213,0.0,6.0,86,0.00,,-RA,0.03,VWS V14.01,2013-02-19 19:00:00,
2013-02-19 14:06:00,51.7,47.7,30.01,WSW,254,3.0,5.0,86,0.00,,OVC030,0.03,VWS V14.01,2013-02-19 19:06:00,
2013-02-19 14:12:00,51.9,47.8,30.01,SW,229,4.0,10.0,86,0.00,,OVC030,0.03,VWS V14.01,2013-02-19 19:12:00,
2013-02-19 14:18:00,51.7,48.3,30.01,WSW,258,3.0,8.0,88,0.00,,OVC030,0.03,VWS V14.01,2013-02-19 19:18:00,
2013-02-19 14:24:00,51.4,48.6,30.01,WNW,295,6.0,9.0,90,0.01,,OVC030,0.04,VWS V14.01,2013-02-19 19:24:00,
2013-02-19 14:30:00,51.1,48.9,30.01,SW,226,10.0,12.0,92,0.01,,OVC030,0.04,VWS V14.01,2013-02-19 19:30:00,
2013-02-19 14:36:00,51.0,49.0,30.01,West,281,2.0,7.0,93,0.02,,OVC030,0.05,VWS V14.01,2013-02-19 19:36:00,
2013-02-19 14:42:00,50.8,49.1,30.01,WNW,285,4.0,7.0,94,0.02,,OVC030,0.05,VWS V14.01,2013-02-19 19:42:00,
2013-02-19 14:48:00,50.8,49.4,30.01,WSW,255,2.0,6.0,95,0.03,,OVC030,0.06,VWS V14.01,2013-02-19 19:48:00,
2013-02-19 14:54:00,50.8,49.7,30.00,West,276,0.0,6.0,96,0.03,,OVC030,0.06,VWS V14.01,2013-02-19 19:54:00,
2013-02-19 15:01:00,50.8,49.7,30.00,WSW,245,3.0,9.0,96,0.04,,OVC030,0.07,VWS V14.01,2013-02-19 20:01:00,
2013-02-19 15:07:00,50.7,49.6,30.00,West,273,5.0,5.0,96,0.04,,,0.07,VWS V14.01,2013-02-19 20:07:00,
2013-02-19 15:13:00,50.7,49.9,30.00,WSW,238,1.0,8.0,97,0.04,,,0.07,VWS V14.01,2013-02-19 20:13:00,
2013-02-19 15:19:00,50.7,49.9,29.98,SW,231,0.0,6.0,97,0.04,,,0.07,VWS V14.01,2013-02-19 20:19:00,
2013-02-19 15:24:00,50.7,49.9,29.98,WNW,296,3.0,13.0,97,0.04,,,0.07,VWS V14.01,2013-02-19 20:24:00,
2013-02-19 15:31:00,50.5,49.7,29.98,West,270,3.0,9.0,97,0.03,,,0.07,VWS V14.01,2013-02-19 20:31:00,
2013-02-19 15:37:00,50.7,49.9,29.98,WSW,239,0.0,5.0,97,0.02,,,0.07,VWS V14.01,2013-02-19 20:37:00,
2013-02-19 15:43:00,50.5,49.7,29.98,WSW,254,1.0,6.0,97,0.02,,,0.07,VWS V14.01,2013-02-19 20:43:00,
2013-02-19 15:49:00,50.5,49.7,29.98,West,264,5.0,10.0,97,0.01,,,0.07,VWS V14.01,2013-02-19 20:49:00,
2013-02-19 15:54:00,50.5,49.4,29.98,WNW,293,4.0,10.0,96,0.01,,,0.07,VWS V14.01,2013-02-19 20:54:00,
2013-02-19 15:59:00,50.5,49.4,29.98,WNW,285,3.0,12.0,96,0.01,,,0.07,VWS V14.01,2013-02-19 20:59:00,
2013-02-19 16:06:00,50.5,49.4,29.98,WNW,286,12.0,13.0,96,0.00,,OVC021,0.07,VWS V14.01,2013-02-19 21:06:00,
2013-02-19 16:12:00,50.5,49.1,29.98,WSW,255,10.0,13.0,95,0.00,,OVC021,0.07,VWS V14.01,2013-02-19 21:12:00,
2013-02-19 16:18:00,50.4,48.7,29.98,West,262,3.0,12.0,94,0.00,,OVC021,0.07,VWS V14.01,2013-02-19 21:18:00,
2013-02-19 16:24:00,50.2,48.5,29.98,West,259,3.0,13.0,94,0.00,,OVC021,0.07,VWS V14.01,2013-02-19 21:24:00,
2013-02-19 16:30:00,50.2,48.0,29.98,WNW,293,4.0,12.0,92,0.00,,OVC021,0.07,VWS V14.01,2013-02-19 21:30:00,
2013-02-19 16:36:00,50.2,47.7,29.98,West,279,5.0,5.0,91,0.00,,OVC021,0.07,VWS V14.01,2013-02-19 21:36:00,
2013-02-19 16:42:00,50.1,47.6,29.98,WSW,246,2.0,9.0,91,0.00,,OVC021,0.07,VWS V14.01,2013-02-19 21:42:00,
2013-02-19 16:48:00,49.9,47.4,29.98,WNW,285,4.0,7.0,91,0.00,,OVC021,0.07,VWS V14.01,2013-02-19 21:48:00,
2013-02-19 16:54:00,49.8,47.3,29.98,West,263,3.0,9.0,91,0.00,,OVC021,0.07,VWS V14.01,2013-02-19 21:54:00,
2013-02-19 17:00:00,49.8,47.3,29.98,West,276,2.0,10.0,91,0.00,,OVC021,0.07,VWS V14.01,2013-02-19 22:00:00,
2013-02-19 17:06:00,49.6,47.1,29.98,WNW,282,8.0,8.0,91,0.00,,OVC023,0.07,VWS V14.01,2013-02-19 22:06:00,
2013-02-19 17:12:00,49.5,47.0,29.98,NW,314,4.0,10.0,91,0.00,,OVC023,0.07,VWS V14.01,2013-02-19 22:12:00,
2013-02-19 17:18:00,49.5,47.0,29.98,West,272,1.0,3.0,91,0.00,,OVC023,0.07,VWS V14.01,2013-02-19 22:18:00,
2013-02-19 17:24:00,49.4,46.9,29.98,WSW,245,2.0,6.0,91,0.00,,OVC023,0.07,VWS V14.01,2013-02-19 22:24:00,
2013-02-19 17:30:00,49.4,46.9,29.98,WNW,302,4.0,10.0,91,0.00,,OVC023,0.07,VWS V14.01,2013-02-19 22:30:00,
2013-02-19 17:36:00,49.2,46.7,29.99,NW,310,2.0,11.0,91,0.00,,OVC023,0.07,VWS V14.01,2013-02-19 22:36:00,
2013-02-19 17:42:00,49.2,46.7,29.99,West,278,2.0,11.0,91,0.00,,OVC023,0.07,VWS V14.01,2013-02-19 22:42:00,
2013-02-19 17:48:00,49.1,46.6,29.99,WNW,289,1.0,5.0,91,0.00,,OVC023,0.07,VWS V14.01,2013-02-19 22:48:00,
2013-02-19 17:54:00,48.9,46.4,30.00,West,265,6.0,8.0,91,0.00,,OVC023,0.07,VWS V14.01,2013-02-19 22:54:00,
2013-02-19 18:00:00,48.8,46.3,30.00,SW,226,2.0,7.0,91,0.00,,OVC023,0.07,VWS V14.01,2013-02-19 23:00:00,
2013-02-19 18:06:00,48.8,46.0,30.01,WNW,290,1.0,3.0,90,0.00,,OVC029,0.07,VWS V14.01,2013-02-19 23:06:00,
2013-02-19 18:12:00,48.6,45.8,30.01,WNW,285,2.0,5.0,90,0.00,,OVC029,0.07,VWS V14.01,2013-02-19 23:12:00,
2013-02-19 18:18:00,48.5,45.7,30.01,West,270,5.0,5.0,90,0.00,,OVC029,0.07,VWS V14.01,2013-02-19 23:18:00,
2013-02-19 18:24:00,48.5,45.4,30.01,NW,317,0.0,6.0,89,0.00,,OVC029,0.07,VWS V14.01,2013-02-19 23:24:00,
2013-02-19 18:30:00,48.3,45.2,30.01,WSW,257,2.0,5.0,89,0.00,,OVC029,0.07,VWS V14.01,2013-02-19 23:30:00,
2013-02-19 18:36:00,48.2,44.8,30.01,WSW,247,3.0,9.0,88,0.00,,OVC029,0.07,VWS V14.01,2013-02-19 23:36:00,
2013-02-19 18:42:00,48.0,44.6,30.01,WSW,250,2.0,9.0,88,0.00,,OVC029,0.07,VWS V14.01,2013-02-19 23:42:00,
2013-02-19 18:48:00,47.7,44.3,30.01,West,265,2.0,5.0,88,0.00,,OVC029,0.07,VWS V14.01,2013-02-19 23:48:00,
2013-02-19 18:54:00,47.6,44.2,30.02,WSW,241,0.0,5.0,88,0.00,,OVC029,0.07,VWS V14.01,2013-02-19 23:54:00,
2013-02-19 19:01:00,47.3,43.9,30.02,West,274,2.0,5.0,88,0.00,,OVC029,0.07,VWS V14.01,2013-02-20 00:01:00,
2013-02-19 19:07:00,47.1,44.0,30.03,West,262,1.0,4.0,89,0.00,,BKN030,0.07,VWS V14.01,2013-02-20 00:07:00,
2013-02-19 19:13:00,47.0,43.9,30.03,SW,229,1.0,4.0,89,0.00,,BKN030,0.07,VWS V14.01,2013-02-20 00:13:00,
2013-02-19 19:19:00,46.8,43.7,30.03,West,264,3.0,5.0,89,0.00,,BKN030,0.07,VWS V14.01,2013-02-20 00:19:00,
2013-02-19 19:24:00,46.7,43.6,30.03,WSW,241,1.0,5.0,89,0.00,,BKN030,0.07,VWS V14.01,2013-02-20 00:24:00,
2013-02-19 19:31:00,46.4,43.6,30.03,West,264,1.0,3.0,90,0.00,,BKN030,0.07,VWS V14.01,2013-02-20 00:31:00,
2013-02-19 19:37:00,46.2,43.4,30.04,West,262,1.0,1.0,90,0.00,,BKN030,0.07,VWS V14.01,2013-02-20 00:37:00,
2013-02-19 19:43:00,46.0,43.5,30.04,WNW,291,2.0,5.0,91,0.00,,BKN030,0.07,VWS V14.01,2013-02-20 00:43:00,
2013-02-19 19:49:00,46.0,43.5,30.04,West,269,0.0,5.0,91,0.00,,BKN030,0.07,VWS V14.01,2013-02-20 00:49:00,
2013-02-19 19:54:00,45.8,43.3,30.04,WNW,303,2.0,5.0,91,0.00,,BKN030,0.07,VWS V14.01,2013-02-20 00:54:00,
2013-02-19 19:59:00,45.7,43.5,30.04,WSW,258,2.0,4.0,92,0.00,,BKN030,0.07,VWS V14.01,2013-02-20 00:59:00,
2013-02-19 20:04:00,45.7,43.5,30.04,West,264,0.0,4.0,92,0.00,,SCT037,0.07,VWS V14.01,2013-02-20 01:04:00,
2013-02-19 20:10:00,45.5,43.3,30.04,West,259,2.0,5.0,92,0.00,,SCT037,0.07,VWS V14.01,2013-02-20 01:10:00,
2013-02-19 20:16:00,45.4,43.2,30.04,SW,224,1.0,4.0,92,0.00,,SCT037,0.07,VWS V14.01,2013-02-20 01:16:00,
2013-02-19 20:22:00,45.1,42.9,30.05,WSW,252,1.0,4.0,92,0.00,,SCT037,0.07,VWS V14.01,2013-02-20 01:22:00,
2013-02-19 20:28:00,44.8,42.9,30.05,NW,316,2.0,4.0,93,0.00,,SCT037,0.07,VWS V14.01,2013-02-20 01:28:00,
2013-02-19 20:34:00,44.8,42.9,30.05,WNW,295,0.0,7.0,93,0.00,,SCT037,0.07,VWS V14.01,2013-02-20 01:34:00,
2013-02-19 20:40:00,44.6,42.7,30.05,West,263,5.0,5.0,93,0.00,,SCT037,0.07,VWS V14.01,2013-02-20 01:40:00,
2013-02-19 20:46:00,44.5,42.6,30.05,NNW,329,1.0,3.0,93,0.00,,SCT037,0.07,VWS V14.01,2013-02-20 01:46:00,
2013-02-19 20:53:00,44.5,42.6,30.06,West,274,1.0,3.0,93,0.00,,SCT037,0.07,VWS V14.01,2013-02-20 01:53:00,
2013-02-19 20:59:00,44.3,42.4,30.06,SSW,200,2.0,4.0,93,0.00,,SCT037,0.07,VWS V14.01,2013-02-20 01:59:00,
2013-02-19 21:04:00,44.3,42.4,30.06,WSW,255,3.0,5.0,93,0.00,,FEW040,0.07,VWS V14.01,2013-02-20 02:04:00,
2013-02-19 21:11:00,44.2,42.3,30.06,West,274,2.0,5.0,93,0.00,,FEW040,0.07,VWS V14.01,2013-02-20 02:11:00,
2013-02-19 21:17:00,44.1,42.2,30.06,West,276,0.0,5.0,93,0.00,,FEW040,0.07,VWS V14.01,2013-02-20 02:17:00,
2013-02-19 21:23:00,43.9,42.0,30.06,West,259,2.0,5.0,93,0.00,,FEW040,0.07,VWS V14.01,2013-02-20 02:23:00,
2013-02-19 21:29:00,43.8,41.9,30.06,West,281,2.0,4.0,93,0.00,,FEW040,0.07,VWS V14.01,2013-02-20 02:29:00,
2013-02-19 21:34:00,43.6,41.7,30.06,NW,309,2.0,5.0,93,0.00,,FEW040,0.07,VWS V14.01,2013-02-20 02:34:00,
2013-02-19 21:40:00,43.5,41.6,30.06,WNW,288,0.0,3.0,93,0.00,,FEW040,0.07,VWS V14.01,2013-02-20 02:40:00,
2013-02-19 21:46:00,43.3,41.4,30.06,West,274,3.0,3.0,93,0.00,,FEW040,0.07,VWS V14.01,2013-02-20 02:46:00,
2013-02-19 21:52:00,43.2,41.3,30.06,West,268,0.0,4.0,93,0.00,,FEW040,0.07,VWS V14.01,2013-02-20 02:52:00,
2013-02-19 21:58:00,43.1,41.2,30.06,West,269,0.0,4.0,93,0.00,,FEW040,0.07,VWS V14.01,2013-02-20 02:58:00,
2013-02-19 22:04:00,42.9,41.0,30.07,West,274,0.0,4.0,93,0.00,,FEW040,0.07,VWS V14.01,2013-02-20 03:04:00,
2013-02-19 22:10:00,42.8,40.9,30.07,West,279,0.0,4.0,93,0.00,,FEW040,0.07,VWS V14.01,2013-02-20 03:10:00,
2013-02-19 22:16:00,42.6,40.7,30.07,West,269,1.0,4.0,93,0.00,,FEW040,0.07,VWS V14.01,2013-02-20 03:16:00,
2013-02-19 22:22:00,42.5,40.9,30.07,West,270,0.0,4.0,94,0.00,,FEW040,0.07,VWS V14.01,2013-02-20 03:22:00,
2013-02-19 22:28:00,42.3,40.4,30.07,WSW,243,0.0,2.0,93,0.00,,FEW040,0.07,VWS V14.01,2013-02-20 03:28:00,